Radioactive Concentration measured by Seawater Radiation Monitor near Fukushima Daiichi Nuclear Power Station
Date,Time,Cs137(Bq/L),Cs134(Bq/L),Total β(Bq/L)
2017/10/23,00:00,0.72,0.083,ND
2017/10/23,00:10,0.77,0.079,ND
2017/10/23,00:20,0.81,0.081,ND
2017/10/23,00:30,0.88,0.074,11
2017/10/23,00:40,0.93,0.082,12
2017/10/23,00:50,0.97,0.095,11
2017/10/23,01:00,1.0,0.11,10
2017/10/23,01:10,1.0,0.11,9.0
2017/10/23,01:20,1.1,0.11,9.9
2017/10/23,01:30,1.1,0.12,ND
2017/10/23,01:40,1.1,0.13,ND
2017/10/23,01:50,1.1,0.13,ND
2017/10/23,02:00,1.2,0.13,ND
2017/10/23,02:10,1.2,0.14,ND
2017/10/23,02:20,1.3,0.14,ND
2017/10/23,02:30,1.3,0.15,ND
2017/10/23,02:40,1.4,0.14,ND
2017/10/23,02:50,1.4,0.14,ND
2017/10/23,03:00,1.4,0.14,ND
2017/10/23,03:10,1.6,0.12,ND
2017/10/23,03:20,1.4,0.15,ND
2017/10/23,03:30,1.4,0.14,ND
2017/10/23,03:40,1.4,0.14,ND
2017/10/23,03:50,1.4,0.14,ND
2017/10/23,04:00,1.4,0.13,9.0
2017/10/23,04:10,1.4,0.12,ND
2017/10/23,04:20,1.4,0.12,9.2
2017/10/23,04:30,1.5,0.13,ND
2017/10/23,04:40,1.6,0.11,ND
2017/10/23,04:50,1.7,0.10,ND
2017/10/23,05:00,1.5,0.13,ND
2017/10/23,05:10,1.6,0.13,ND
2017/10/23,05:20,1.6,0.14,ND
2017/10/23,05:30,1.6,0.14,9.9
2017/10/23,05:40,1.6,0.14,13
2017/10/23,05:50,1.6,0.15,14
2017/10/23,06:00,1.7,0.16,13
2017/10/23,06:10,1.9,0.14,14
2017/10/23,06:20,1.9,0.15,16
2017/10/23,06:30,2.0,0.16,14
2017/10/23,06:40,2.1,0.17,12
2017/10/23,06:50,2.2,0.17,12
2017/10/23,07:00,2.3,0.18,12
2017/10/23,07:10,2.4,0.19,12
2017/10/23,07:20,2.5,0.22,12
2017/10/23,07:30,2.5,0.22,14
2017/10/23,07:40,2.6,0.22,14
2017/10/23,07:50,2.5,0.23,14
2017/10/23,08:00,2.2,0.26,14
2017/10/23,08:10,2.1,0.25,15
2017/10/23,08:20,2.0,0.21,14
2017/10/23,08:30,1.9,0.21,13
2017/10/23,08:40,1.8,0.20,13
2017/10/23,08:50,1.7,0.17,14
2017/10/23,09:00,1.6,0.15,14
2017/10/23,09:10,1.5,0.14,11
2017/10/23,09:20,1.4,0.14,12
2017/10/23,09:30,1.3,0.13,9.3
2017/10/23,09:40,1.3,0.13,ND
2017/10/23,09:50,1.2,0.12,ND
2017/10/23,10:00,1.2,0.11,ND
2017/10/23,10:10,1.3,0.078,ND
2017/10/23,10:20,1.3,0.096,11
2017/10/23,10:30,1.3,0.083,12
2017/10/23,10:40,1.2,0.085,14
2017/10/23,10:50,1.2,0.095,15
2017/10/23,11:00,1.2,0.092,13
2017/10/23,11:10,1.2,0.091,14
2017/10/23,11:20,1.2,0.064,11
2017/10/23,11:30,1.0,0.086,11
2017/10/23,11:40,1.0,0.097,9.3
2017/10/23,11:50,1.0,0.084,9.0
2017/10/23,12:00,1.1,0.078,ND
2017/10/23,12:10,1.2,0.051,ND
2017/10/23,12:20,1.0,0.088,ND
2017/10/23,12:30,0.99,0.089,ND
2017/10/23,12:40,1.2,0.054,ND
2017/10/23,12:50,1.2,0.057,ND
2017/10/23,13:00,1.1,0.068,ND
2017/10/23,13:10,0.96,0.090,ND
2017/10/23,13:20,0.97,0.078,ND
2017/10/23,13:30,1.1,0.056,ND
2017/10/23,13:40,1.1,0.056,ND
2017/10/23,13:50,1.1,0.058,ND
2017/10/23,14:00,1.1,0.059,ND
2017/10/23,14:10,1.1,0.066,ND
2017/10/23,14:20,1.1,0.063,ND
2017/10/23,14:30,0.92,0.089,ND
2017/10/23,14:40,0.92,0.096,9.7
2017/10/23,14:50,0.95,0.091,12
2017/10/23,15:00,0.95,0.091,13
2017/10/23,15:10,0.98,0.093,12
2017/10/23,15:20,1.0,0.090,11
2017/10/23,15:30,1.2,0.064,8.9
2017/10/23,15:40,1.2,0.057,ND
2017/10/23,15:50,1.1,0.079,ND
2017/10/23,16:00,1.3,0.058,ND
2017/10/23,16:10,1.3,0.051,ND
2017/10/23,16:20,1.3,0.064,ND
2017/10/23,16:30,1.2,0.064,ND
2017/10/23,16:40,1.3,0.068,ND
2017/10/23,16:50,1.2,0.071,ND
2017/10/23,17:00,1.2,0.058,ND
2017/10/23,17:10,1.2,0.074,ND
2017/10/23,17:20,1.2,0.072,ND
2017/10/23,17:30,1.2,0.071,ND
2017/10/23,17:40,1.2,0.071,ND
2017/10/23,17:50,1.1,0.096,ND
2017/10/23,18:00,1.1,0.099,ND
2017/10/23,18:10,1.1,0.086,ND
2017/10/23,18:20,1.2,0.092,ND
2017/10/23,18:30,1.4,0.074,ND
2017/10/23,18:40,1.3,0.099,ND
2017/10/23,18:50,1.5,0.085,ND
2017/10/23,19:00,1.6,0.091,ND
2017/10/23,19:10,1.7,0.099,ND
2017/10/23,19:20,1.8,0.10,ND
2017/10/23,19:30,1.8,0.10,ND
2017/10/23,19:40,1.9,0.11,ND
2017/10/23,19:50,1.9,0.12,ND
2017/10/23,20:00,1.7,0.15,ND
2017/10/23,20:10,1.9,0.13,ND
2017/10/23,20:20,1.7,0.15,ND
2017/10/23,20:30,1.7,0.15,ND
2017/10/23,20:40,1.6,0.15,ND
2017/10/23,20:50,1.6,0.14,ND
2017/10/23,21:00,1.5,0.13,ND
2017/10/23,21:10,1.5,0.12,ND
2017/10/23,21:20,1.4,0.12,ND
2017/10/23,21:30,1.4,0.11,ND
2017/10/23,21:40,1.4,0.11,ND
2017/10/23,21:50,1.4,0.12,ND
2017/10/23,22:00,1.5,0.12,ND
2017/10/23,22:10,1.5,0.12,ND
2017/10/23,22:20,1.5,0.13,ND
2017/10/23,22:30,1.7,0.10,ND
2017/10/23,22:40,1.7,0.092,ND
2017/10/23,22:50,1.5,0.11,ND
2017/10/23,23:00,1.5,0.11,ND
2017/10/23,23:10,1.5,0.11,ND
2017/10/23,23:20,1.5,0.098,ND
2017/10/23,23:30,1.4,0.11,ND
2017/10/23,23:40,1.4,0.10,ND
2017/10/23,23:50,1.3,0.11,ND
